Find Starlink 34903

NORAD ID: 65372 Int'l Des: 2025-190 Owner: SPXS Country: US Constellation: starlink operational
LEOCIRCULAR

实时位置

正在加载3D地球...

关于 Starlink 34903

正在加载描述...

即将过境

Passes for default location (London). Set your location on the main map for personalized predictions.

高度历史

Loading altitude history...

两行轨道根数

1 65372U 25190X 26106.93914270 .00009792 00000-0 34229-3 0 9990
2 65372 53.1619 350.3398 0001584 110.4737 249.6434 15.30199812 35618
Epoch: Apr 16, 2026 • Age: 12 hours

当前状态

高度 477.5 km
速度 7.63 km/s
星下点 38.95°N, 134.46°E
发射日期 Aug 28, 2025
运行时间 0.6 years
类型 internet

技术详情

分类 Payload
质量 575.00 kg
干质量 530.00 kg
总质量 575.00 kg
长度 0.30 m
直径 4.10 m
跨度 29.00 m
形状 Box + pan
制造商 SPXS
平台类型 Starlink V2MO
阶段状态 In Orbit
所有者/国家 SPXS/US

Most Searched